Station WLON7 - 8658120 - Wilmington, NC Image indicating link to RSS feed of recent meteorological observations for station WLON7


Conditions at WLON7 as of
(2:30 am EDT)
0630 GMT on 06/23/2024:
     

Click on the graph icon in the table below to see a time series plot of the last five days of that observation.

5-day plot - Atmospheric Pressure Atmospheric Pressure (PRES):30.00 in
5-day plot - Air Temperature Air Temperature (ATMP): 78.1 °F
5-day plot - Water Temperature Water Temperature (WTMP): 82.9 °F
NOS Water Level Observation Network Water Level
Previous observations
TIME
(EDT)
5-day plot - Wind Direction
WDIR
 
5-day plot - Wind Speed
WSPD
kts
5-day plot - Wind Gust
GST
kts
5-day plot - Wave Height
WVHT
ft
5-day plot - Dominant Wave Period
DPD
sec
5-day plot - Average Wave Period
APD
sec
5-day plot - Mean Wave Direction
MWD
 
5-day plot - Atmospheric Pressure
PRES
in
5-day plot - Pressure Tendency
PTDY
in
5-day plot - Air Temperature
ATMP
°F
5-day plot - Water Temperature
WTMP
°F
5-day plot - Dew Point
DEWP
°F
5-day plot - Salinity
SAL
psu
5-day plot - Visibility
VIS
nmi
5-day plot - Tide (above MLLW)
TIDE
ft
2024-06-23 02:24 am-------30.00- 78.3 82.9----
2024-06-23 02:18 am-------30.01- 78.3 82.9----
2024-06-23 02:12 am-------30.01- 78.3 82.9----
2024-06-23 02:06 am-------30.01- 78.3 82.9----
2024-06-23 02:00 am--------- 78.3 82.9----
2024-06-23 01:54 am--------- 78.4 82.9----
2024-06-23 01:48 am-------30.01- 78.6 82.9----
2024-06-23 01:42 am-------30.01- 78.6 82.9----
2024-06-23 01:36 am-------30.01- 78.4 82.9----
2024-06-23 01:30 am-------30.02-- 82.9----
2024-06-23 01:24 am-------30.02-- 82.9----
2024-06-23 01:18 am-------30.02- 78.4 83.1----
2024-06-23 01:12 am-------30.02- 78.4 83.1----
2024-06-23 01:06 am-------30.02- 78.4 83.1----
2024-06-23 01:00 am-------30.03-0.01 78.3 83.1----
2024-06-23 12:54 am-------30.03- 78.4 83.3----
2024-06-23 12:48 am-------30.03- 78.4 83.3----
2024-06-23 12:42 am-------30.03- 78.6 83.3----
2024-06-23 12:36 am-------30.03- 78.6 83.3----
2024-06-23 12:30 am-------30.03- 78.6 83.3----
2024-06-23 12:24 am-------30.03- 78.6 83.3----
2024-06-23 12:18 am-------30.03-- 83.3----
2024-06-23 12:12 am-------30.03-- 83.3----
2024-06-23 12:06 am-------30.03-- 83.3----
2024-06-23 12:00 am-------30.03+0.01 78.6 83.3----
2024-06-22 11:54 pm-------30.03- 78.8 83.1----
2024-06-22 11:48 pm-------30.04- 78.6 83.3----
2024-06-22 11:42 pm-------30.04- 78.6 83.3----
2024-06-22 11:36 pm-------30.04- 78.8 83.3----
2024-06-22 11:30 pm-------30.04- 79.0 83.3----
2024-06-22 11:24 pm-------30.04- 78.8 83.3----
2024-06-22 11:18 pm-------30.04- 79.0 83.3----
2024-06-22 11:12 pm-------30.04- 79.0 83.3----
2024-06-22 11:06 pm-------30.04- 78.8 83.3----
2024-06-22 11:00 pm-------30.03+0.02- 83.3----
2024-06-22 10:54 pm-------30.04-- 83.3----
2024-06-22 10:48 pm-------30.03-- 83.3----
2024-06-22 10:42 pm-------30.03-- 83.3----
2024-06-22 10:36 pm-------30.03-- 83.3----
2024-06-22 10:30 pm-------30.03- 79.5 83.3----
2024-06-22 10:24 pm-------30.03- 79.5 83.3----
2024-06-22 10:18 pm-------30.03- 79.5 83.3----
2024-06-22 10:12 pm-------30.03- 79.7 83.3----
2024-06-22 10:06 pm-------30.03- 79.7 83.3----
2024-06-22 10:00 pm-------30.03+0.03- 83.3----
2024-06-22 09:54 pm-------30.03-- 83.3----
2024-06-22 09:48 pm-------30.03- 80.2 83.3----
2024-06-22 09:42 pm-------30.03- 80.4 83.5----
2024-06-22 09:36 pm-------30.03- 80.4 83.5----
2024-06-22 09:30 pm-------30.03-------
2024-06-22 09:24 pm-------30.03-------
2024-06-22 09:18 pm-------30.03- 81.0 83.5----
2024-06-22 09:12 pm-------30.02- 81.5 83.5----
2024-06-22 09:06 pm-------30.02- 81.3 83.5----
2024-06-22 09:00 pm-------30.02+0.01 81.3 83.5----
2024-06-22 08:54 pm-------30.02- 81.1 83.5----
2024-06-22 08:48 pm-------30.02- 81.5 83.5----
2024-06-22 08:42 pm-------30.02- 81.5 83.7----
2024-06-22 08:36 pm-------30.02- 81.9 83.7----
2024-06-22 08:30 pm-------30.02- 82.2 83.7----
2024-06-22 08:24 pm-------30.02- 82.2 83.7----
2024-06-22 08:18 pm-------30.02- 82.2 83.7----
2024-06-22 08:12 pm-------30.02- 82.4 83.7----
2024-06-22 08:06 pm-------30.02- 82.8 83.7----
2024-06-22 08:00 pm-------30.02+0.00 82.9 83.7----
2024-06-22 07:54 pm-------30.02- 83.3 83.7----
2024-06-22 07:48 pm---------- 83.7----
2024-06-22 07:42 pm---------- 83.7----
2024-06-22 07:36 pm---------- 83.5----
2024-06-22 07:30 pm-------30.01- 84.4 83.5----
2024-06-22 07:24 pm-------30.01- 84.6 83.5----
2024-06-22 07:18 pm-------30.01- 84.4 83.5----
2024-06-22 07:00 pm-------30.01-0.03- 83.5----
2024-06-22 06:54 pm-------30.01-- 83.5----
2024-06-22 06:48 pm-------30.01- 84.6 83.5----
2024-06-22 06:42 pm-------30.01- 84.6 83.5----
2024-06-22 06:36 pm-------30.01- 84.4 83.5----
2024-06-22 06:30 pm-------30.01- 84.6 83.7----
2024-06-22 06:24 pm-------30.01- 84.6 83.7----
2024-06-22 06:18 pm-------30.01- 84.7 83.8----
2024-06-22 06:12 pm-------30.01- 85.1 83.8----
2024-06-22 06:06 pm-------30.01- 85.1 83.8----
2024-06-22 06:00 pm-------30.01-0.04 84.9 83.8----
2024-06-22 05:54 pm-------30.01- 85.1 83.8----
2024-06-22 05:48 pm-------30.01- 85.1 83.8----
2024-06-22 05:42 pm-------30.01- 85.1 83.8----
2024-06-22 05:36 pm-------30.01- 85.3 83.8----
2024-06-22 05:30 pm-------30.01-- 83.8----
2024-06-22 05:24 pm-------30.01-- 83.8----
2024-06-22 05:18 pm-------30.01- 85.6 83.8----
2024-06-22 05:12 pm-------30.01- 85.8 84.0----
2024-06-22 05:06 pm-------30.02- 85.8 84.0----
2024-06-22 05:00 pm-------30.02-0.06 86.0 84.0----
2024-06-22 04:54 pm-------30.02- 86.2 84.0----
2024-06-22 04:48 pm-------30.02-- 84.0----
2024-06-22 04:42 pm-------30.02-- 84.0----
2024-06-22 04:36 pm-------30.03-- 84.0----
2024-06-22 04:30 pm--------- 86.4 84.0----
2024-06-22 04:24 pm--------- 86.4 84.0----
2024-06-22 04:18 pm-------30.03-- 84.0----
2024-06-22 04:12 pm-------30.03-- 84.0----
2024-06-22 04:06 pm-------30.03-- 84.0----
2024-06-22 04:00 pm-------30.03-0.06 86.4 84.0----
2024-06-22 03:54 pm-------30.04- 86.5 84.0----
2024-06-22 03:48 pm-------30.04- 86.4 84.0----
2024-06-22 03:42 pm-------30.04- 86.5 84.0----
2024-06-22 03:36 pm-------30.04- 86.2 84.0----
2024-06-22 03:30 pm-------30.04- 86.2 84.0----
2024-06-22 03:24 pm-------30.04- 86.7 84.0----
2024-06-22 03:18 pm-------30.05- 85.8 84.0----
2024-06-22 03:12 pm-------30.05- 85.8 84.0----
2024-06-22 03:06 pm-------30.05- 85.5 83.8----
2024-06-22 03:00 pm-------30.05-0.06 85.5 83.7----
2024-06-22 02:54 pm-------30.06- 85.8 83.5----
2024-06-22 02:48 pm-------30.06- 86.2 83.3----
2024-06-22 02:42 pm-------30.06- 85.5 83.5----
2024-06-22 02:36 pm-------30.06- 85.3 83.5----
2024-06-22 02:30 pm-------30.07- 84.9 83.3----
2024-06-22 02:24 pm-------30.07- 84.9 83.3----
2024-06-22 02:18 pm-------30.07- 85.3-----
2024-06-22 02:12 pm-------30.07- 84.9-----
2024-06-22 02:06 pm-------30.07- 84.9-----
2024-06-22 02:00 pm-------30.08-0.05 84.4 83.5----
2024-06-22 01:54 pm-------30.08- 83.3 83.5----
2024-06-22 01:48 pm-------30.08- 82.4 83.3----
2024-06-22 01:42 pm-------30.08- 82.0 83.3----
2024-06-22 01:36 pm-------30.08- 82.2 83.5----
2024-06-22 01:30 pm-------30.09- 83.1 83.5----
2024-06-22 01:24 pm-------30.09- 83.7 83.5----
2024-06-22 01:18 pm-------30.09- 83.8 83.5----
2024-06-22 01:12 pm-------30.09- 84.2 83.5----
2024-06-22 01:06 pm-------30.09- 84.9 83.3----
2024-06-22 01:00 pm-------30.09-0.04 84.9 83.3----
2024-06-22 12:54 pm-------30.10- 84.9 83.1----
2024-06-22 12:48 pm-------30.10- 85.3 83.5----
2024-06-22 12:42 pm-------30.10- 84.7 83.3----
2024-06-22 12:36 pm-------30.11- 84.9 83.3----
2024-06-22 12:30 pm-------30.11- 84.9 83.3----
2024-06-22 12:24 pm-------30.11- 86.2 83.3----
2024-06-22 12:18 pm-------30.11- 84.7 83.3----
2024-06-22 12:12 pm-------30.11- 85.1 83.5----
2024-06-22 12:06 pm-------30.11- 84.9 83.3----
2024-06-22 12:00 pm-------30.11-0.02 85.8 82.8----
2024-06-22 11:54 am-------30.11- 85.8 82.8----
2024-06-22 11:48 am-------30.11-- 82.6----
2024-06-22 11:42 am-------30.11-- 82.4----
2024-06-22 11:36 am-------30.12-- 82.4----
2024-06-22 11:30 am-------30.12- 82.4 82.4----
2024-06-22 11:24 am-------30.12- 82.6 82.4----
2024-06-22 11:18 am-------30.12- 83.5 82.4----
2024-06-22 11:12 am-------30.12- 86.5 82.4----
2024-06-22 11:06 am-------30.12- 84.4 82.4----
2024-06-22 11:00 am-------30.13+0.01 81.9 82.4----
2024-06-22 10:54 am-------30.13- 81.1 82.4----
2024-06-22 10:48 am-------30.13- 81.0 82.4----
2024-06-22 10:42 am-------30.13- 80.6 82.4----
2024-06-22 10:36 am-------30.13- 79.9 82.4----
2024-06-22 10:30 am-------30.13- 79.5 82.4----
2024-06-22 10:24 am-------30.13- 79.2 82.4----
2024-06-22 10:18 am--------- 78.6 82.4----
2024-06-22 10:12 am--------- 79.3 82.4----
2024-06-22 10:06 am--------- 80.4 82.4----
2024-06-22 10:00 am-------30.13+0.01- 82.4----
2024-06-22 09:54 am-------30.13-- 82.4----
2024-06-22 09:48 am-------30.13- 84.2 82.4----
2024-06-22 09:42 am-------30.13- 84.4 82.4----
2024-06-22 09:36 am-------30.13- 84.0 82.4----
2024-06-22 09:30 am-------30.13- 83.7 82.4----
2024-06-22 09:24 am-------30.13- 84.4 82.4----
2024-06-22 09:18 am-------30.13- 84.6 82.4----
2024-06-22 09:12 am-------30.13- 83.5 82.2----
2024-06-22 09:06 am-------30.13- 82.9 82.2----
2024-06-22 09:00 am-------30.13+0.02 83.3-----
2024-06-22 08:54 am-------30.14- 82.9-----
2024-06-22 08:48 am-------30.14-------
2024-06-22 08:42 am-------30.13-------
2024-06-22 08:36 am-------30.13-------
2024-06-22 08:30 am---------- 82.2----
2024-06-22 08:24 am---------- 82.2----
2024-06-22 08:18 am-------30.13- 80.2 82.2----
2024-06-22 08:12 am-------30.12- 80.2 82.2----
2024-06-22 08:06 am-------30.12- 80.2 82.2----
2024-06-22 08:00 am-------30.12+0.01- 82.2----
2024-06-22 07:54 am-------30.11-- 82.2----
2024-06-22 07:48 am-------30.11- 80.2 82.2----
2024-06-22 07:42 am-------30.11- 80.1 82.2----
2024-06-22 07:36 am-------30.11- 80.8 82.2----
2024-06-22 07:30 am-------30.11- 81.1 82.2----
2024-06-22 07:24 am-------30.11- 78.8 82.2----
2024-06-22 07:18 am-------30.11-- 82.2----
2024-06-22 07:12 am-------30.12-- 82.2----
2024-06-22 07:06 am-------30.12-- 82.2----
2024-06-22 07:00 am-------30.12- 76.6 82.2----
2024-06-22 06:54 am-------30.11- 76.3 82.2----
2024-06-22 06:48 am-------30.12- 75.9 82.2----
2024-06-22 06:42 am-------30.11- 75.9 82.2----
2024-06-22 06:36 am-------30.12- 76.1 82.2----
2024-06-22 06:30 am-------30.12- 75.6-----
2024-06-22 06:24 am-------30.12- 75.0-----
2024-06-22 06:18 am-------30.11- 75.0 82.2----
2024-06-22 06:12 am-------30.12- 75.2 82.2----
2024-06-22 06:06 am-------30.11- 75.2 82.2----
2024-06-22 06:00 am-------30.11-0.01 75.6 82.2----
2024-06-22 05:54 am-------30.11- 75.7 82.2----
2024-06-22 05:48 am-------30.11-- 82.2----
2024-06-22 05:42 am-------30.11-- 82.2----
2024-06-22 05:36 am-------30.11-- 82.2----
2024-06-22 05:30 am-------30.11- 75.2 82.2----
2024-06-22 05:24 am-------30.11- 75.0 82.2----
2024-06-22 05:18 am-------30.11- 75.2 82.4----
2024-06-22 05:12 am-------30.11- 75.4 82.4----
2024-06-22 05:06 am-------30.11- 75.6 82.4----
2024-06-22 05:00 am-------30.11-0.03 75.6 82.4----
2024-06-22 04:54 am-------30.11- 75.7 82.4----
2024-06-22 04:48 am-------30.11- 75.7 82.4----
2024-06-22 04:42 am-------30.11- 75.7 82.4----
2024-06-22 04:36 am-------30.11- 75.7 82.4----
2024-06-22 04:30 am-------30.11-- 82.4----
2024-06-22 04:24 am-------30.11-- 82.4----
2024-06-22 04:18 am-------30.11-- 82.4----
2024-06-22 04:12 am-------30.11-- 82.4----
2024-06-22 04:06 am-------30.11-- 82.4----
2024-06-22 04:00 am---------- 82.4----
2024-06-22 03:54 am---------- 82.4----
2024-06-22 03:48 am-------30.11- 76.1 82.4----
2024-06-22 03:42 am-------30.11- 76.5 82.4----
2024-06-22 03:36 am-------30.11- 76.5 82.4----
2024-06-22 03:30 am-------30.11- 76.3 82.4----
2024-06-22 03:24 am-------30.12- 76.3 82.4----
2024-06-22 03:18 am-------30.12- 76.5 82.4----
2024-06-22 03:12 am-------30.12- 76.5 82.4----
2024-06-22 03:06 am-------30.12- 76.8 82.4----
2024-06-22 03:00 am-------30.12-0.03 76.8 82.4----
2024-06-22 02:54 am-------30.12- 76.8 82.4----